Temperature
15 14 14 14 14 14 14 13 13 13 13 13 13 13 13 12 12 12 12 12 12 12 12 12 12 12 12 12 12 12 12 11 11 11 11 11 11 11 11 11 11 11 11
14 14 14 14 14 13 13 13 13 13 13 13 12 12 12 12 12 12 12 12 12 12 12 12 12 12 12 11 11 11 11 11 11 11 11 11 11 11 11 11 11 11 11
14 14 14 14 13 13 13 13 13 12 12 12 12 12 12 12 12 12 12 12 12 11 11 11 11 11 11 11 11 11 11 11 11 11 10 10 10 10 10 11 10 10 10
14 13 13 13 13 13 13 13 12 12 12 12 12 12 12 12 12 12 11 11 11 11 11 11 11 11 11 11 11 11 11 11 10 10 10 10 10 10 10 10 10 10 10
13 13 13 13 13 13 12 12 12 12 12 12 11 12 11 11 11 11 11 11 11 11 11 11 11 11 11 11 11 11 10 10 10 10 10 10 10 10 10 10 10 10 10
13 13 13 12 12 12 12 12 12 12 11 11 11 11 11 11 11 11 11 11 11 11 10 10 10 10 10 10 10 10 10 10 10 10 10 10 10 10 10 10 10 9 9
13 12 12 12 12 12 12 11 11 11 11 11 11 11 11 11 11 11 11 10 10 10 10 10 10 10 10 10 10 10 10 10 10 10 10 10 9 9 9 9 9 9 9
12 12 12 12 12 11 11 11 11 11 10 10 10 10 10 10 10 10 10 10 10 10 10 10 10 10 10 10 10 9 9 9 9 9 9 9 9 9 9 9 9 9 8
12 12 12 11 11 11 11 11 10 10 10 10 10 10 10 10 10 10 10 10 10 9 9 9 9 9 9 9 9 9 9 9 9 9 9 9 9 8 8 8 8 8 8
12 12 11 11 11 11 10 10 10 10 10 10 9 9 9 10 10 9 9 9 9 9 9 9 9 9 9 9 9 9 9 9 8 8 8 8 8 8 8 8 8 7 7
11 11 11 11 10 10 10 10 9 9 9 9 9 9 9 9 9 9 9 9 9 8 8 8 8 8 8 8 8 8 8 8 8 8 8 8 8 8 8 8 7 7 7
11 11 11 10 10 10 10 9 9 9 9 9 9 9 8 9 9 8 8 8 8 8 8 8 8 8 8 8 8 8 8 7 7 7 7 7 7 7 7 7 7 7 7
10 10 10 10 10 9 9 9 9 9 9 8 8 8 8 8 8 8 8 8 8 8 8 7 7 7 7 7 7 7 7 7 7 7 6 6 6 6 6 6 6 6 6
10 10 9 9 9 9 9 9 8 8 8 8 8 8 8 8 8 8 7 7 7 7 7 7 7 7 7 7 6 6 6 6 6 6 6 6 6 6 6 6 6 6 6
10 9 9 9 8 8 8 8 8 8 8 8 8 7 7 7 7 7 7 7 7 7 7 6 6 6 6 6 6 6 6 5 5 5 5 5 5 5 5 5 5 5 5
9 9 8 8 8 8 8 8 7 7 7 7 7 7 7 7 7 7 7 6 6 6 6 6 6 6 5 5 5 5 5 5 5 5 5 5 5 5 5 5 5 5 5
8 8 8 8 8 7 7 7 7 7 7 7 7 7 7 6 6 6 6 6 6 6 5 5 5 5 5 4 4 4 4 4 4 4 4 4 4 4 4 4 4 4 4
8 8 8 7 7 7 7 7 6 6 6 6 6 6 6 6 6 6 6 5 5 5 5 4 4 4 4 4 4 4 4 4 4 4 4 4 4 4 4 4 4 4 4
8 7 7 7 7 7 6 6 6 6 6 6 6 6 6 5 5 5 5 5 5 4 4 4 4 4 3 3 3 3 3 3 3 3 3 3 3 3 3 3 3 3 3
7 7 7 7 6 6 6 6 5 5 5 5 5 5 5 5 5 5 4 4 4 4 4 4 4 3 3 3 3 3 3 3 3 3 3 3 3 3 3 3 3 3 3
7 7 6 6 6 6 6 5 5 5 5 5 5 5 5 5 4 4 4 4 3 3 3 3 3 3 3 3 3 3 3 3 3 3 3 3 3 3 3 3 3 3 2
6 6 6 6 5 5 5 5 5 5 4 4 4 4 4 4 4 4 3 3 3 3 3 3 3 3 3 2 3 2 2 2 2 2 2 2 2 2 2 2 2 2 2
6 6 5 5 5 5 5 5 4 4 4 4 4 3 3 3 3 3 3 3 2 2 2 2 2 2 2 2 2 2 2 2 2 2 2 2 2 2 2 2 2 2 2
5 5 5 5 5 4 4 4 4 4 4 4 3 3 3 3 3 3 2 2 2 2 2 2 2 2 2 2 2 2 2 2 2 2 2 2 2 2 1 1 1 1 1
5 5 5 4 4 4 4 4 4 3 3 3 3 3 3 3 2 2 2 2 2 2 2 2 2 2 2 2 2 1 1 1 1 1 1 1 1 1 1 1 1 1 1
4 4 4 4 4 4 4 3 3 3 3 3 3 3 2 2 2 2 2 2 2 1 1 1 1 1 1 1 1 1 1 1 1 1 1 1 1 1 1 1 1 1 1
Wind_Speed
4 3 4 4 4 4 3 3 3 2 2 3 3 3 3 3 3 2 2 2 2 2 2 1 2 1 1 1 1 1 1 1 2 2 1 1 1 1 1 1 2 2 2
3 3 2 3 3 3 2 2 1 2 2 2 3 2 3 3 3 3 3 3 3 2 2 2 3 2 2 2 1 2 2 2 2 2 2 1 2 2 1 2 2 2 2
3 3 2 2 3 2 2 2 2 2 2 2 3 3 3 3 3 3 4 4 3 3 3 2 3 3 3 2 3 3 2 2 2 2 2 2 2 2 1 2 2 1 2
3 3 3 3 3 2 2 2 2 2 2 3 2 2 2 2 2 3 3 3 3 3 3 2 3 2 3 3 3 3 2 2 2 2 2 2 2 2 1 2 2 1 2
3 3 3 3 3 2 2 3 2 2 3 2 2 2 2 2 2 2 2 2 2 3 2 2 2 2 1 1 2 2 2 2 2 2 2 2 2 1 2 2 2 2 2
3 3 2 2 1 2 2 2 2 2 2 2 2 2 2 2 1 1 1 2 2 3 3 3 3 3 3 3 3 2 2 3 3 2 2 3 3 2 2 2 1 1 3
2 2 2 2 2 2 2 1 1 2 2 2 2 2 2 1 2 1 2 3 3 3 3 3 3 3 3 2 3 4 3 4 5 3 3 3 3 2 2 2 2 2 3
2 2 2 2 2 1 1 1 2 2 2 2 2 2 1 1 1 1 3 3 3 4 4 4 4 4 3 2 3 3 3 3 3 3 3 3 3 2 2 3 3 2 1
2 2 2 2 2 1 2 2 2 2 2 3 2 2 2 2 2 2 2 3 3 4 4 2 2 2 3 2 2 3 2 2 2 3 3 4 4 5 4 2 1 1 2
2 1 1 2 2 2 2 2 2 2 2 2 2 2 3 2 3 3 2 2 4 3 3 2 2 2 2 2 2 2 3 2 2 2 3 4 4 4 4 3 2 2 2
0 0 1 1 2 2 1 1 1 1 2 2 2 2 2 2 2 3 3 2 3 3 2 2 2 3 3 2 2 2 3 3 3 3 3 3 3 3 3 3 2 2 2
1 1 1 1 2 2 2 1 1 1 2 2 2 2 2 2 2 3 4 4 4 3 2 2 2 3 3 3 3 3 4 3 2 2 2 3 3 2 2 2 2 2 3
1 1 1 1 1 1 1 1 1 1 2 2 2 2 2 1 2 3 4 5 5 3 2 1 2 3 2 3 3 4 2 1 2 2 3 3 3 2 2 1 1 1 2
1 1 1 1 0 0 0 1 1 1 2 2 2 2 2 1 1 1 1 2 3 2 2 1 1 2 2 2 2 2 2 2 2 2 2 2 2 1 1 1 2 1 2
2 1 1 0 0 0 1 1 1 1 2 2 2 2 1 1 2 1 1 2 1 1 1 1 0 1 1 2 1 1 1 1 2 1 2 2 1 1 2 1 1 1 2
2 2 1 1 1 1 0 1 3 2 3 3 3 2 1 1 1 1 1 1 1 1 1 2 2 2 2 2 2 2 2 2 2 2 2 2 2 2 2 2 2 2 3
2 1 1 1 1 1 1 1 2 3 3 4 3 3 3 3 2 2 1 1 2 2 2 3 2 2 2 2 2 2 2 2 2 2 2 2 2 2 2 2 2 2 3
2 1 1 1 2 2 2 2 2 2 2 3 3 4 4 3 3 3 1 0 1 2 2 2 2 2 2 2 2 2 2 2 2 2 2 2 2 2 2 2 2 3 3
1 1 1 1 2 2 2 2 2 2 2 2 1 1 3 2 2 2 2 1 2 2 2 2 2 2 2 2 2 2 2 2 2 2 2 2 2 2 3 3 3 4 4
1 2 2 2 2 2 2 2 2 2 3 2 2 1 1 1 1 1 2 2 2 2 2 2 2 2 2 2 2 2 2 2 3 3 3 3 3 2 3 3 3 3 3
1 2 3 2 2 2 2 2 2 2 2 2 2 2 2 2 2 2 2 2 2 3 3 2 2 2 2 2 2 2 3 2 2 3 3 3 3 3 3 3 3 3 3
1 1 1 2 2 2 2 2 2 2 2 2 2 1 3 2 2 2 2 2 3 3 2 2 2 2 2 2 3 3 3 3 2 2 2 3 3 3 2 3 3 3 3
1 1 2 2 2 2 3 2 2 2 2 2 2 1 2 2 2 2 2 2 2 2 2 2 2 2 2 2 2 2 3 3 2 2 2 3 2 3 3 3 4 4 3
1 2 2 2 2 2 3 3 2 2 2 2 2 1 2 2 2 2 2 2 2 2 2 2 2 2 3 2 1 1 1 1 1 2 3 3 3 3 3 3 3 4 3
2 2 2 2 2 3 2 2 2 2 2 2 2 1 1 2 2 2 2 2 2 2 2 2 2 2 1 1 1 1 2 2 2 2 2 3 3 3 3 3 3 3 2
2 2 2 2 2 2 2 2 2 2 2 2 2 1 1 2 2 2 1 1 1 1 1 1 2 1 1 1 2 2 2 2 3 3 2 2 2 2 2 2 2 2 1
Wind_Direction
187 198 190 183 191 196 199 200 198 211 208 196 206 206 197 196 200 201 203 201 223 228 218 208 231 224 209 223 212 251 270 195 231 285 293 289 327 321 317 278 236 192 205
186 193 189 183 193 197 194 190 196 231 227 209 208 208 210 209 205 204 207 206 217 226 236 226 223 222 222 226 217 224 239 235 210 249 275 287 288 278 274 271 258 230 227
172 176 182 192 196 205 198 201 227 238 257 247 225 212 219 218 213 213 211 202 203 216 229 243 239 217 222 217 219 223 234 248 222 214 250 258 273 274 289 291 271 266 253
159 176 194 200 198 201 202 210 225 231 239 254 247 220 225 230 226 229 227 213 208 215 220 245 256 226 224 223 228 227 233 240 241 218 238 251 261 263 247 269 290 286 291
160 185 204 207 190 196 209 216 214 226 233 231 237 228 230 234 241 237 241 232 223 233 235 238 257 255 240 249 251 231 233 232 233 228 235 257 265 264 255 258 266 279 294
169 179 184 190 197 206 208 219 222 225 238 235 238 229 232 262 271 267 271 244 231 232 242 239 240 241 252 250 257 253 231 226 228 225 231 237 246 253 263 271 270 285 296
178 173 170 186 200 208 214 208 215 233 248 244 249 241 229 230 249 257 280 263 249 240 243 242 255 251 243 232 245 243 243 243 227 223 239 241 240 253 253 267 263 251 258
188 183 178 182 182 181 201 215 219 234 240 250 251 238 222 263 273 267 265 258 257 247 240 231 232 232 238 228 228 233 234 247 241 233 229 246 249 244 241 247 247 264 282
200 201 186 179 183 196 217 228 239 240 239 232 237 221 213 233 240 243 244 240 246 252 248 248 260 248 246 231 230 231 235 266 283 259 258 263 270 266 261 277 284 268 282
203 204 185 187 191 205 220 224 229 234 245 238 232 228 218 225 228 222 228 243 246 248 241 224 233 251 248 227 228 223 224 247 253 285 290 287 271 262 252 228 220 234 261
168 223 209 204 204 210 222 234 232 235 247 256 250 245 227 217 203 211 224 252 271 259 234 223 222 226 242 255 254 232 246 248 234 234 251 259 258 249 241 242 228 212 232
146 219 234 218 221 214 199 233 240 243 246 253 261 262 245 223 213 227 228 245 277 276 251 220 206 207 234 257 260 265 273 281 244 222 232 249 250 247 241 237 248 255 245
149 197 223 214 220 201 193 222 255 257 253 260 260 263 264 243 220 225 231 246 267 277 288 236 212 201 227 249 254 261 269 259 237 225 234 245 246 246 253 259 277 284 302
180 197 206 199 213 283 319 246 243 263 270 269 268 269 264 238 231 233 245 261 277 291 315 312 255 229 245 251 255 249 240 240 244 240 243 254 257 259 258 257 264 259 283
203 193 190 189 210 279 345 337 313 280 251 259 268 274 272 278 286 265 223 247 248 244 277 280 263 244 237 248 249 241 227 242 264 276 267 269 270 254 253 260 261 260 262
207 197 187 187 180 182 180 336 342 303 303 292 262 248 270 247 257 226 231 225 240 213 214 230 234 227 227 229 228 238 240 242 242 242 254 257 256 248 250 253 255 254 257
224 200 182 192 206 218 225 229 276 309 309 302 279 257 248 257 246 237 240 230 235 206 228 239 236 230 236 230 228 234 241 242 237 235 241 248 254 260 257 257 253 254 264
232 193 195 211 220 230 237 244 240 246 274 291 278 254 248 251 249 240 229 156 252 224 230 235 239 239 236 237 235 236 246 252 249 248 250 249 247 253 257 256 254 259 261
228 187 203 225 236 239 239 245 248 253 263 277 277 268 246 249 252 239 199 223 235 239 240 243 249 251 251 244 237 233 236 240 246 248 248 250 249 254 258 252 252 257 263
239 220 225 234 247 252 246 252 256 255 262 261 251 238 208 204 242 233 224 241 241 249 247 239 237 240 242 247 246 237 236 240 242 241 248 248 244 243 252 255 252 252 256
255 234 225 240 244 246 246 247 254 258 263 266 257 228 183 206 221 220 216 230 235 237 241 240 236 233 229 231 236 234 234 241 243 244 246 246 244 247 248 248 251 253 256
253 254 240 243 254 256 252 247 253 257 255 257 266 236 195 207 215 218 223 232 233 236 238 237 245 240 229 232 235 229 232 241 248 250 259 265 258 252 254 255 255 255 254
243 251 265 258 247 255 259 254 247 243 245 245 247 234 204 214 219 222 229 236 237 239 237 239 241 245 242 238 229 220 229 237 239 242 249 255 259 260 257 256 257 260 259
263 264 260 259 256 243 242 244 239 237 240 243 243 233 212 210 217 227 229 220 219 234 228 227 234 246 249 246 214 206 207 228 230 236 239 244 250 257 262 259 256 258 255
260 263 263 262 258 257 249 238 234 234 238 239 242 245 231 217 219 227 229 220 212 222 237 222 224 241 255 258 234 229 251 262 266 263 251 244 243 247 257 261 259 260 258
284 284 279 273 268 261 249 241 238 237 239 242 237 237 242 232 225 223 227 228 223 223 236 219 220 214 227 248 259 271 273 262 257 265 263 265 242 247 260 266 275 268 252
Height
1511 1512 1513 1514 1515 1516 1518 1518 1519 1520 1521 1521 1521 1522 1522 1522 1523 1523 1523 1524 1524 1524 1524 1525 1525 1525 1525 1526 1526 1526 1526 1527 1526 1526 1526 1526 1526 1525 1525 1524 1524 1523 1522
1508 1510 1511 1512 1513 1514 1515 1515 1516 1517 1518 1518 1519 1519 1519 1520 1520 1520 1521 1521 1521 1521 1522 1522 1523 1523 1523 1523 1523 1523 1524 1524 1524 1523 1524 1524 1523 1523 1523 1522 1522 1521 1520
1506 1507 1508 1509 1510 1511 1512 1512 1513 1514 1515 1515 1516 1516 1516 1517 1517 1518 1518 1518 1518 1519 1519 1519 1520 1520 1520 1520 1520 1521 1521 1521 1522 1521 1521 1521 1521 1521 1520 1520 1520 1519 1518
1504 1505 1505 1506 1507 1508 1509 1509 1510 1511 1512 1512 1512 1513 1513 1514 1514 1515 1515 1515 1515 1515 1516 1516 1517 1517 1517 1517 1517 1518 1518 1518 1519 1518 1518 1518 1518 1518 1518 1517 1516 1517 1516
1501 1502 1503 1504 1504 1505 1506 1506 1507 1508 1508 1509 1509 1509 1510 1510 1511 1511 1512 1512 1512 1512 1512 1513 1513 1514 1514 1514 1514 1514 1515 1515 1515 1515 1515 1515 1515 1515 1515 1514 1514 1513 1513
1499 1499 1500 1501 1502 1502 1503 1503 1504 1504 1505 1505 1506 1506 1506 1507 1507 1507 1508 1508 1508 1508 1509 1509 1509 1509 1510 1510 1511 1511 1511 1511 1511 1511 1511 1511 1511 1511 1511 1511 1511 1510 1509
1497 1497 1497 1498 1499 1499 1500 1500 1500 1501 1501 1501 1502 1502 1502 1503 1504 1504 1504 1504 1504 1504 1505 1505 1505 1505 1506 1506 1506 1507 1507 1507 1508 1508 1508 1507 1508 1508 1508 1507 1507 1507 1506
1494 1495 1495 1495 1496 1496 1496 1496 1497 1497 1498 1498 1498 1499 1499 1499 1499 1499 1500 1500 1500 1500 1501 1501 1501 1501 1501 1502 1502 1502 1503 1503 1503 1504 1504 1504 1504 1504 1504 1504 1504 1503 1503
1492 1492 1492 1492 1492 1493 1493 1493 1494 1494 1494 1495 1495 1495 1495 1495 1495 1495 1495 1495 1495 1496 1496 1497 1497 1497 1498 1498 1498 1498 1498 1499 1499 1500 1500 1500 1500 1500 1501 1501 1500 1499 1498
1489 1489 1489 1490 1490 1490 1490 1491 1491 1491 1491 1491 1491 1491 1491 1491 1491 1491 1491 1491 1491 1491 1492 1492 1493 1493 1493 1494 1494 1494 1494 1494 1495 1495 1495 1496 1496 1496 1496 1496 1496 1495 1494
1486 1486 1487 1487 1487 1487 1487 1488 1488 1488 1488 1488 1488 1488 1488 1487 1487 1487 1487 1487 1487 1487 1487 1487 1488 1489 1489 1489 1489 1489 1489 1490 1490 1490 1490 1490 1491 1491 1491 1491 1492 1492 1491
1483 1483 1483 1484 1484 1485 1485 1485 1485 1485 1485 1485 1485 1485 1484 1484 1484 1484 1484 1484 1484 1483 1483 1483 1484 1484 1485 1485 1485 1485 1485 1485 1485 1485 1485 1485 1486 1486 1486 1486 1486 1487 1487
1480 1480 1481 1481 1481 1481 1482 1481 1482 1482 1482 1481 1481 1481 1481 1481 1480 1480 1480 1480 1480 1480 1479 1479 1479 1480 1480 1480 1480 1480 1480 1480 1480 1480 1480 1480 1481 1481 1481 1482 1481 1482 1482
1477 1477 1478 1478 1478 1479 1479 1479 1479 1479 1478 1478 1478 1478 1477 1477 1476 1476 1476 1476 1476 1476 1475 1475 1475 1475 1475 1475 1475 1475 1475 1475 1476 1476 1476 1477 1477 1477 1477 1477 1477 1477 1477
1474 1475 1475 1475 1475 1475 1476 1476 1476 1476 1476 1475 1474 1474 1474 1473 1473 1473 1472 1472 1471 1471 1471 1471 1471 1470 1470 1470 1470 1470 1471 1471 1471 1472 1472 1472 1472 1472 1472 1472 1472 1472 1472
1471 1471 1472 1472 1472 1472 1472 1472 1472 1472 1472 1472 1471 1471 1470 1470 1469 1469 1468 1468 1468 1468 1467 1466 1466 1466 1466 1466 1466 1466 1466 1467 1467 1467 1467 1468 1468 1467 1467 1467 1467 1467 1467
1468 1468 1469 1469 1469 1469 1468 1468 1467 1468 1468 1468 1467 1467 1466 1465 1465 1465 1464 1464 1463 1463 1463 1462 1462 1462 1462 1462 1462 1462 1462 1463 1463 1463 1463 1463 1463 1463 1463 1463 1463 1463 1462
1465 1465 1466 1465 1465 1465 1465 1465 1464 1464 1463 1462 1463 1462 1462 1461 1461 1460 1460 1460 1459 1459 1459 1459 1458 1458 1458 1458 1459 1459 1459 1459 1459 1459 1459 1459 1459 1459 1459 1458 1458 1458 1458
1462 1462 1462 1462 1462 1462 1462 1461 1461 1460 1459 1459 1458 1457 1457 1457 1456 1456 1456 1455 1454 1454 1455 1455 1455 1455 1455 1455 1455 1455 1455 1455 1455 1455 1455 1455 1455 1455 1454 1454 1454 1453 1453
1458 1459 1459 1459 1459 1458 1458 1458 1457 1456 1456 1455 1454 1453 1453 1452 1451 1451 1451 1451 1451 1451 1451 1451 1451 1451 1451 1451 1451 1451 1451 1451 1451 1451 1450 1451 1450 1450 1450 1449 1449 1449 1448
1455 1455 1456 1455 1455 1455 1454 1454 1453 1453 1452 1451 1451 1450 1449 1449 1448 1447 1447 1447 1447 1447 1447 1447 1447 1446 1447 1447 1447 1447 1447 1447 1446 1446 1446 1446 1446 1445 1445 1445 1444 1444 1444
1452 1452 1452 1451 1451 1451 1450 1450 1449 1449 1448 1448 1447 1447 1446 1445 1445 1444 1444 1444 1444 1444 1444 1444 1443 1443 1443 1443 1442 1442 1442 1442 1442 1442 1442 1441 1441 1441 1441 1440 1440 1439 1439
1449 1448 1448 1448 1447 1447 1447 1446 1445 1445 1444 1444 1444 1443 1443 1442 1441 1441 1440 1440 1440 1440 1440 1440 1439 1439 1439 1439 1438 1438 1438 1438 1438 1437 1437 1437 1437 1437 1436 1436 1435 1434 1434
1445 1444 1444 1444 1443 1443 1442 1442 1442 1441 1441 1441 1440 1440 1440 1439 1438 1438 1437 1437 1437 1436 1436 1436 1435 1435 1435 1435 1434 1434 1434 1434 1434 1433 1433 1433 1432 1432 1432 1431 1431 1430 1430
1441 1441 1440 1440 1439 1439 1438 1438 1438 1438 1437 1437 1437 1437 1436 1436 1435 1435 1434 1434 1433 1433 1432 1431 1431 1431 1430 1430 1430 1430 1430 1430 1430 1430 1429 1429 1428 1428 1428 1428 1427 1427 1426
1437 1437 1436 1436 1435 1435 1434 1434 1434 1434 1434 1434 1433 1433 1433 1432 1432 1431 1431 1430 1430 1429 1428 1428 1428 1427 1427 1426 1426 1426 1426 1426 1426 1426 1425 1425 1424 1424 1424 1424 1424 1423 1423